SCP
0 0 0 -0 -0 -0 -0 0 0 0 0 0 0 0 0 0 0 0 0 0 0 0
-0 -0 -0 0 0 0 -0 -0 0 -0 0 0 0 0 0 0 0 0 0 0 0 0
0 0 -0 -0 0 0 -0 -0 -0 -0 -0 -0 0 0 0 0 0 0 0 0 0 0
0 0 0 -0 -0 -0 -0 -0 -0 -0 -0 -0 -0 -0 -0 -0 -0 -0 -0 -0 -0 -0
0 0 -0 -0 -0 -0 -0 -0 -0 -0 -0 -0 -0 -0 -0 -0 -0 -0 -0 -0 -0 -0
0 0 -0 -0 -0 -0 -0 -0 -0 -0 -0 -0 -0 -0 -0 -0 -0 -0 -0 -0 -0 -0
0 0 0 0 -0 -0 -0 -0 -0 -0 -0 -0 -0 -0 -0 -0 -0 -0 -0 -0 -0 -0
0 0 0 0 0 0 0 0 -0 -0 -0 -0 -0 0 -0 -0 -0 -0 -0 -0 -0 -0
0 0 0 0 0 0 0 0 0 0 0 0 0 -0 -0 -0 -0 -0 0 0 0 0
0 0 0 0 0 0 0 0 0 0 0 0 0 0 -0 0 0 0 0 0 0 0
0 0 0 0 0 0 0 0 0 0 0 0 0 0 0 0 0 0 0 0 0 0
0 0 0 0 0 0 0 0 0 0 0 0 0 0 0 0 0 0 0 0 0 0
0 0 0 0 0 0 0 0 0 0 0 0 0 0 0 0 0 0 0 0 0 0
0 0 0 0 0 0 0 0 0 0 0 0 0 0 0 0 0 0 0 0 0 0
Wind_Speed_500mb
32 29 31 29 27 30 45 49 57 45 32 26 27 26 31 36 35 27 16 14 15 18
31 29 32 28 23 22 27 29 24 27 26 28 26 25 16 25 26 27 24 21 19 19
39 35 31 27 25 22 21 21 20 19 22 27 26 29 33 29 25 23 25 25 22 22
30 32 33 33 39 36 32 29 27 28 30 31 33 30 27 29 29 26 27 28 25 29
29 28 29 32 33 28 28 29 29 30 32 33 35 35 31 31 32 31 33 37 38 41
26 27 29 31 31 31 32 32 33 34 34 33 33 29 28 29 32 37 41 43 41 40
21 20 21 23 23 21 21 22 24 25 24 28 29 30 31 32 36 40 41 40 38 37
15 15 15 16 16 16 18 20 21 22 24 25 28 30 34 36 39 38 38 37 34 32
13 14 14 14 14 16 15 18 21 22 22 26 29 33 34 34 36 36 34 32 31 29
14 13 13 13 15 17 16 15 18 21 22 25 30 32 31 31 32 32 31 27 25 23
18 17 14 15 15 16 16 17 16 18 23 25 26 27 26 29 28 28 27 24 21 20
22 19 17 16 17 17 16 16 16 13 16 21 25 25 23 22 21 22 22 22 19 16
26 24 20 18 17 18 18 18 17 17 18 19 22 22 22 23 23 21 20 18 18 18
30 27 25 23 22 23 21 20 21 21 20 21 24 25 23 20 21 21 20 20 20 19
Wind_Direction_500mb
70 83 105 102 111 125 130 128 131 137 125 130 140 141 161 180 200 213 179 159 158 189
75 80 86 93 104 109 115 120 124 137 143 149 147 166 172 162 164 174 168 160 162 167
81 79 82 90 95 103 110 125 132 140 161 164 155 154 154 145 143 148 137 127 124 130
81 86 88 86 85 87 92 99 111 122 129 132 130 127 130 129 124 133 129 124 129 130
84 87 92 92 92 91 98 102 106 112 118 118 120 123 128 132 131 133 130 128 130 124
93 94 97 99 99 102 103 106 108 113 118 122 125 129 131 133 134 134 132 129 127 122
111 107 104 103 106 107 109 114 120 122 125 129 129 132 134 138 138 138 134 132 131 129
120 115 111 114 116 113 118 122 121 124 133 136 135 137 140 142 144 142 139 138 137 133
148 138 130 126 120 117 125 127 127 132 137 138 143 144 145 149 148 146 146 147 145 147
169 160 150 148 144 141 138 138 138 140 143 147 151 147 150 151 155 157 156 156 157 156
181 178 173 169 161 154 151 150 149 152 152 155 156 153 159 161 168 169 167 168 171 170
192 192 185 184 176 166 165 165 160 160 160 162 164 163 169 173 181 183 184 184 187 192
198 198 191 193 193 186 178 182 180 175 175 178 181 181 178 185 192 202 207 209 211 213
199 204 201 200 200 200 198 196 196 192 191 191 192 192 194 196 205 209 218 226 229 233
Wind_Speed_850mb
32 29 31 29 27 30 45 49 57 45 32 26 27 26 31 36 35 27 16 14 15 18
31 29 32 28 23 22 27 29 24 27 26 28 26 25 16 25 26 27 24 21 19 19
39 35 31 27 25 22 21 21 20 19 22 27 26 29 33 29 25 23 25 25 22 22
30 32 33 33 39 36 32 29 27 28 30 31 33 30 27 29 29 26 27 28 25 29
29 28 29 32 33 28 28 29 29 30 32 33 35 35 31 31 32 31 33 37 38 41
26 27 29 31 31 31 32 32 33 34 34 33 33 29 28 29 32 37 41 43 41 40
21 20 21 23 23 21 21 22 24 25 24 28 29 30 31 32 36 40 41 40 38 37
15 15 15 16 16 16 18 20 21 22 24 25 28 30 34 36 39 38 38 37 34 32
13 14 14 14 14 16 15 18 21 22 22 26 29 33 34 34 36 36 34 32 31 29
14 13 13 13 15 17 16 15 18 21 22 25 30 32 31 31 32 32 31 27 25 23
18 17 14 15 15 16 16 17 16 18 23 25 26 27 26 29 28 28 27 24 21 20
22 19 17 16 17 17 16 16 16 13 16 21 25 25 23 22 21 22 22 22 19 16
26 24 20 18 17 18 18 18 17 17 18 19 22 22 22 23 23 21 20 18 18 18
30 27 25 23 22 23 21 20 21 21 20 21 24 25 23 20 21 21 20 20 20 19
Wind_Direction_850mb
70 83 105 102 111 125 130 128 131 137 125 130 140 141 161 180 200 213 179 159 158 189
75 80 86 93 104 109 115 120 124 137 143 149 147 166 172 162 164 174 168 160 162 167
81 79 82 90 95 103 110 125 132 140 161 164 155 154 154 145 143 148 137 127 124 130
81 86 88 86 85 87 92 99 111 122 129 132 130 127 130 129 124 133 129 124 129 130
84 87 92 92 92 91 98 102 106 112 118 118 120 123 128 132 131 133 130 128 130 124
93 94 97 99 99 102 103 106 108 113 118 122 125 129 131 133 134 134 132 129 127 122
111 107 104 103 106 107 109 114 120 122 125 129 129 132 134 138 138 138 134 132 131 129
120 115 111 114 116 113 118 122 121 124 133 136 135 137 140 142 144 142 139 138 137 133
148 138 130 126 120 117 125 127 127 132 137 138 143 144 145 149 148 146 146 147 145 147
169 160 150 148 144 141 138 138 138 140 143 147 151 147 150 151 155 157 156 156 157 156
181 178 173 169 161 154 151 150 149 152 152 155 156 153 159 161 168 169 167 168 171 170
192 192 185 184 176 166 165 165 160 160 160 162 164 163 169 173 181 183 184 184 187 192
198 198 191 193 193 186 178 182 180 175 175 178 181 181 178 185 192 202 207 209 211 213
199 204 201 200 200 200 198 196 196 192 191 191 192 192 194 196 205 209 218 226 229 233